Flag for U.S.A. Weather past 2 weeks in Fort Lauderdale, Florida, U.S.A.

Now
77 °F

Partly cloudy.


Feels Like: 79 °F
Forecast: 76 / 82 °F
Wind: No wind

Location: Fort Lauderdale / Hollywood International Airport

Current Time: Oct 21, 2014 at 1:43:28 AM

Latest Report: Oct 21, 2014 at 12:53 AM


Visibility: 10 mi

Pressure: 29.95 "Hg

Humidity: 79%

Dew point: 70 °F

Location of Fort LauderdaleLocation

Historic Weather in Fort Lauderdale — Graph

°F

Fort Lauderdale temperature yesterday

Maximum temperature yesterday: 85 °F (at 1:53 PM)
Minimum temperature yesterday: 77 °F (at 9:53 PM)
Average temperature yesterday: 81 °F

Past Weeks' High & Low Weather Summary

 TemperatureHumidityPressure
High88 °F (Oct 9, 12:53 PM)94% (Oct 15, 4:53 AM)30.11 "Hg (Oct 15, 4:53 AM)
Low68 °F (Oct 17, 5:53 AM)25% (Oct 19, 8:53 AM)29.87 "Hg (Oct 16, 5:53 PM)
Average81 °F68%29.99 "Hg
* Reported Oct 5 11:53 PM — Oct 20 11:53 PM, Fort Lauderdale, Weather by CustomWeather, © 2014

Note: Actual official high and low records may vary slightly from our data, if they occured in-between our weather recording intervals... More about our weather records

Advertising

Fort Lauderdale weather history for previous 24 hours

 ConditionsComfort  
Time TempWeatherWind HumidityBarometerVisibility
11:53 PM
Oct 20
78 °FPassing clouds.No wind79%29.97 "Hg10 mi
10:53 PM79 °FOvercast.No wind79%29.97 "Hg10 mi
9:53 PM77 °FPartly cloudy.5 mph88%29.98 "Hg10 mi
8:53 PM78 °FPassing clouds.No wind84%29.96 "Hg10 mi
7:53 PM78 °FMostly cloudy.6 mph84%29.96 "Hg10 mi
6:53 PM82 °FMostly cloudy.14 mph65%29.94 "Hg10 mi
5:53 PM82 °FOvercast.14 mph63%29.93 "Hg10 mi
4:53 PM83 °FPartly sunny.9 mph61%29.93 "Hg10 mi
3:53 PM83 °FCloudy.12 mph61%29.95 "Hg10 mi
2:53 PM84 °FBroken clouds.14 mph59%29.95 "Hg10 mi
1:53 PM85 °FBroken clouds.14 mph57%29.96 "Hg10 mi
12:53 PM84 °FBroken clouds.12 mph57%29.99 "Hg10 mi
11:53 AM83 °FPartly sunny.9 mph57%30.02 "Hg10 mi
10:53 AM84 °FScattered clouds.6 mph55%30.02 "Hg10 mi
9:53 AM83 °FPassing clouds.6 mph53%30.02 "Hg10 mi
8:53 AM82 °FPassing clouds.7 mph53%30.01 "Hg10 mi
7:53 AM78 °FPassing clouds.No wind64%29.99 "Hg10 mi
6:53 AM78 °FPassing clouds.3 mph64%29.99 "Hg10 mi
5:53 AM78 °FPassing clouds.6 mph64%29.98 "Hg10 mi
4:53 AM78 °FPassing clouds.7 mph62%29.97 "Hg10 mi
3:53 AM78 °FPassing clouds.6 mph60%29.98 "Hg10 mi
2:53 AM78 °FPassing clouds.7 mph62%29.98 "Hg10 mi
1:53 AM80 °FPassing clouds.8 mph58%29.99 "Hg10 mi
Weather by CustomWeather, © 2014

See weather overviewHow to use our weather pages